• Processing (Info)

  • MPEC 2007-T58 : 5025 P-L

    The following Minor Planet Electronic Circular may be linked-to from your own Web pages, but must not otherwise be redistributed electronically.

    A form allowing access to any MPEC is at the bottom of this page.


    Read MPEC 2007-T57 Read MPEC 2007-T59


    M.P.E.C. 2007-T58                                Issued 2007 Oct. 10, 19:14 UT
    
         The Minor Planet Electronic Circulars contain information on unusual
             minor planets and routine data on comets.  They are published
       on behalf of Commission 20 of the International Astronomical Union by the
              Minor Planet Center, Smithsonian Astrophysical Observatory,
                              Cambridge, MA 02138, U.S.A.
    
                 Prepared using the Tamkin Foundation Computer Network
    
                                  MPC@CFA.HARVARD.EDU
              URL http://www.cfa.harvard.edu/iau/mpc.html  ISSN 1523-6714
    
                                       5025 P-L
    
    Additional Observations:
         PLS5025  C1999 09 03.28927 23 17 51.72 -04 33 54.8          20.4 V ET058691
         PLS5025  C1999 09 03.31123 23 17 50.31 -04 34 03.4          20.2 V ET058691
         PLS5025  C1999 09 03.33340 23 17 48.94 -04 34 11.1          20.5 V ET058691
         PLS5025  C2007 09 10.24740 23 08 13.34 -05 32 55.5          19.8 V ET058703
         PLS5025  C2007 09 10.25443 23 08 12.80 -05 32 56.9          19.5 V ET058703
         PLS5025  C2007 09 10.26147 23 08 12.44 -05 33 01.0          19.6 V ET058703
         PLS5025  C2007 09 10.27370 23 08 11.58 -05 33 04.5          20.2 V ET058703
         PLS5025  C2007 09 10.28596 23 08 10.75 -05 33 09.7          20.4 V ET058G96
         PLS5025  C2007 09 10.29302 23 08 10.28 -05 33 11.8          20.4 V ET058G96
         PLS5025  C2007 09 10.30009 23 08 09.81 -05 33 14.8          20.3 V ET058G96
         PLS5025  C2007 09 10.30714 23 08 09.34 -05 33 17.7          20.2 V ET058G96
         PLS5025  C2007 09 30.12730 22 46 57.47 -07 32 31.5          20.6 V ET058691
         PLS5025  C2007 09 30.14898 22 46 56.15 -07 32 38.6          20.6 V ET058691
         PLS5025  C2007 09 30.17068 22 46 54.83 -07 32 45.9          20.2 V ET058691
         PLS5025  C2007 09 30.22093 22 46 51.74 -07 33 02.6          21.2 V ET058291
         PLS5025  C2007 09 30.22479 22 46 51.51 -07 33 03.9          20.7 V ET058291
         PLS5025  C2007 09 30.22863 22 46 51.29 -07 33 04.7          20.8 V ET058291
         PLS5025  C2007 10 09.10933 22 38 33.71 -08 17 55.6          20.5 V ET058691
         PLS5025  C2007 10 09.12830 22 38 32.71 -08 18 00.9          20.5 V ET058691
         PLS5025  C2007 10 09.14728 22 38 31.71 -08 18 06.2          20.4 V ET058691
         PLS5025 HC2007 10 10.10814 22 37 42.79 -08 22 26.2                 ET058291
         PLS5025 HC2007 10 10.11405 22 37 42.45 -08 22 27.7                 ET058291
         PLS5025  C2007 10 10.11978 22 37 42.14 -08 22 29.2          21.4 V ET058291
         PLS5025  C2007 10 10.24410 22 37 35.72 -08 23 03.0          20.6 V ET058G96
         PLS5025  C2007 10 10.25008 22 37 35.40 -08 23 04.8          20.5 V ET058G96
         PLS5025  C2007 10 10.25581 22 37 35.14 -08 23 06.1          20.7 V ET058G96
         PLS5025  C2007 10 10.26141 22 37 34.82 -08 23 07.5          20.5 V ET058G96
    
    Observer details:
    291 LPL/Spacewatch II.  Observers T. H. Bressi, J. V. Scotti.  1.8-m f/2.7
        reflector + CCD.
    691 Steward Observatory, Kitt Peak.  Observers T. H. Bressi, J. V. Scotti.
        0.9-m f/3 reflector + CCD.
    703 Catalina Sky Survey.  Observer A. R. Gibbs.  Measurers E. C. Beshore,
        A. Boattini, G. J. Garradd, A. R. Gibbs, A. D. Grauer, R. E. Hill,
        R. A. Kowalski, S. M. Larson, R. H. McNaught.  0.68-m Schmidt + CCD.
    G96 Mt. Lemmon Survey.  Observers E. Beshore, R. A. Kowalski.  Measurers
        E. C. Beshore, A. Boattini, G. J. Garradd, A. R. Gibbs, A. D. Grauer,
        R. E. Hill, R. A. Kowalski, S. M. Larson, R. H. McNaught.  1.5-m reflector
        + CCD.
    
    Orbital elements:
    5025 P-L                                                 Earth MOID = 0.0535 AU
    Epoch 2007 Oct. 27.0 TT = JDT 2454400.5                 MPC
    M 295.17457              (2000.0)            P               Q
    n   0.24600497     Peri.  152.70585     -0.75481828     -0.65574726
    a   2.5225520      Node   346.28295     +0.58912918     -0.66725970
    e   0.7460171      Incl.    3.78394     +0.28840278     -0.35321386
    P   4.01           H   15.7           G   0.15           U   3
    Residuals in seconds of arc
    601022 675  1.1+  1.4+    070910 G96  0.1-  0.2-    071009 691  0.1-  0.0
    601025 675  0.1-  1.0-    070910 G96  0.1-  0.3+    071009 691  0.0   0.1-
    601026 675  0.9-  0.5-    070910 G96  0.1-  0.0     071009 691  0.0   0.1-
    990903 691  0.1+  0.2+    070910 G96  0.2-  0.3-    071010 291  0.7+  0.0
    990903 691  0.2-  0.5-    070930 691  0.3-  0.2+    071010 291  0.1+  0.1+
    990903 691  0.3+  0.2-    070930 691  0.2-  0.3+    071010 291  0.1-  0.2+
    070910 703  0.4+  0.4-    070930 691  0.1-  0.1+    071010 G96  0.1+  0.4-
    070910 703  0.7-  0.8+    070930 291  0.2-  0.0     071010 G96  0.1-  0.6-
    070910 703  0.9+  0.7-    070930 291  0.1-  0.0     071010 G96  0.4+  0.4-
    070910 703  0.2+  0.4+    070930 291  0.1+  0.4+    071010 G96  0.0   0.3-
    
    Ephemeris:
    PLS5025                  a,e,i = 2.52, 0.75, 4                   q = 0.6407
    Date    TT    R. A. (2000) Decl.     Delta      r     Elong.  Phase     V
    2007 10 07    22 40.41   -08 08.0    2.290    3.164   145.3    10.4    20.7
    2007 10 17    22 32.40   -08 50.1    2.333    3.103   133.3    13.5    20.8
    2007 10 27    22 26.61   -09 19.0    2.395    3.039   121.9    16.1    20.9
    2007 11 06    22 23.27   -09 33.8    2.470    2.974   111.0    18.1    21.0
    2007 11 16    22 22.42   -09 34.5    2.554    2.906   100.8    19.5    21.0
    2007 11 26    22 23.98   -09 21.8    2.640    2.836    91.1    20.4    21.1
    2007 12 06    22 27.73   -08 56.5    2.723    2.764    82.0    20.7    21.1
    2007 12 16    22 33.47   -08 19.4    2.801    2.690    73.4    20.5    21.1
    2007 12 26    22 40.97   -07 31.4    2.868    2.613    65.2    20.0    21.1
    
    Sonia Keys                   (C) Copyright 2007 MPC           M.P.E.C. 2007-T58
    

    Read MPEC 2007-T57 Read MPEC 2007-T59


    MPEC number:

    Enter an MPEC number in one of the following forms:

    • 1997-B01 (the full form)
    • J97B01 (the packed version of the full form)
    • B01 (the abbreviated form)